Regional Weather Roundup
Issued by NWS

Home | Current Version | Previous Version | Text Only | Print | Product List | Glossary On
Versions: 1 2 3 4 5 6 7 8 9 10 11 12 13 14 15 16 17 18 19 20 21 22 23 24 25 26 27 28 29 30 31 32 33 34 35 36 37 38 39 40 41 42 43 44 45 46 47 48 49 50
000
ASUS46 KPQR 010710
RWROR

OREGON REGIONAL WEATHER ROUNDUP
NATIONAL WEATHER SERVICE PORTLAND OR
1200 AM PDT WED JUL 01 2015

NOTE: "FAIR" INDICATES FEW OR NO CLOUDS BELOW 12,000 FEET WITH
NO SIGNIFICANT WEATHER AND/OR OBSTRUCTIONS TO VISIBILITY.

ORZ001>013-010800-
NORTHWEST OREGON


CITY           SKY/WX    TMP DP  RH WIND       PRES   REMARKS
ASTORIA        PTCLDY    58  56  93 W6        30.10S
NEWPORT        MOCLDY    54  52  94 N7        30.09S
PORTLAND       CLEAR     72  55  55 NW9       30.01S
VANCOUVER WA   CLEAR     71  52  50 NW14G22   30.00S
SCAPPOOSE      CLEAR     71  52  50 N8        30.01S
HILLSBORO      CLEAR     70  49  47 NW7       30.02R
AURORA         CLEAR     71  54  54 N5        30.02S
MCMINNVILLE    CLEAR     69  56  62 W3        30.02R
SALEM          CLEAR     72  54  53 NW7       29.99S
CORVALLIS      CLEAR     68  55  64 NW12      30.01S
EUGENE         CLEAR     69  57  65 N5        29.99S
$$

ORZ021-028-010800-
SOUTHWEST OREGON


CITY           SKY/WX    TMP DP  RH WIND       PRES   REMARKS
NORTH BEND     CLOUDY    55  55 100 N9        30.04S
BROOKINGS      FOG       55  55 100 CALM      29.91F VSB 1/2
ROSEBURG       CLEAR     78  56  46 SW3       29.97R
SEXTON SUMMIT  CLEAR     67  49  52 N12       30.11F
MEDFORD        CLEAR     81  50  33 CALM      29.96S
$$

ORZ014>016-041-010800-
COLUMBIA GORGE


CITY           SKY/WX    TMP DP  RH WIND       PRES   REMARKS
TROUTDALE      CLEAR     73  56  54 VRB5      29.99R
THE DALLES     CLEAR     81  58  45 CALM      29.91R
$$

ORZ029>031-041-044-049-050-061>064-502-503-505>511-010800-
EASTERN OREGON


CITY           SKY/WX    TMP DP  RH WIND       PRES   REMARKS
REDMOND        CLEAR     71  48  43 NW6       30.08S
BEND             N/A    N/A N/A N/A MISG        N/A
PRINEVILLE     CLEAR     64  45  48 CALM      30.09R
KLAMATH FALLS  CLEAR     75  57  53 W5        30.10S
LAKEVIEW       CLEAR     72  43  35 N9        30.15R
HERMISTON      CLEAR     79  50  36 S8        29.89R
PENDLETON      CLEAR     74  42  31 W7        29.95R
JOHN DAY       CLEAR     74  48  40 CALM      30.10S
MEACHAM        CLEAR     56  48  74 CALM      30.12S
LA GRANDE      CLEAR     70  45  40 N5        30.04S
BAKER CITY     CLEAR     68  47  46 NW7       30.08S
BURNS          CLEAR     74  43  32 SE3       30.11R
ROME             N/A     81  44  27 N10       30.06R
ONTARIO        CLEAR     85  47  26 NW15      29.95R
$$



USA.gov is the U.S. government's official web portal to all federal, state and local government web resources and services.